GALEX

Satellite information

Favourite Embed

Satellite Type and Status

PAYLOADIN ORBIT

Key statistics

Satellite GALEX at a glance.

Uptime

8218

Days in orbit

Revolutions

≈ 14.7

Per day

Orbit

LEO

Low Earth Orbit

Inclination

29.0

Latest

Satellite identification and parameters

Extended collection of information and parameters for GALEX.

Object identification

Identified? True

Debris? False

Object name: GALEX

International designator: 2003-017A

Object number (NORAD): 27783

Object ID (CCSDS): 27783

Country: UNITED STATES OF AMERICA (US)

Current information (Y/N): Y

RCS size: LARGE

Orbital parameters

Period: 98.25 minutes

Inclination: 28.9959 deg

SMA: 7053.114 km

Apoapsis: 677.361 km

Periapsis: 672.597 km

RAAN: 129.5412 deg

Eccentricy: 0.0003377

Argument of periapsis: 308.6916 deg

Mean anomaly: 51.337 deg

Mean motion: 14.65653794 rev/day

Mean motion (dot): 0.00001205 rev/day2

B* drag term: 0.00019776893 1/REarth

Two-line elements (TLE)

Creation date: Oct. 27, 2025, 2:46 a.m.

Reference frame: TEME

Reference center: EARTH

Epoch: Oct. 26, 2025, 9:35 p.m. UTC

TLE line 0: 0 GALEX

TLE line 1: 1 27783U 03017A 25299.89956260 .00001205 00000-0 19777-3 0 9992

TLE line 2: 2 27783 28.9959 129.5412 0003377 308.6916 51.3370 14.65653794202955

Live tracking on map

Real-time ground track for satellite GALEX.

In-orbit conjunctions

A list of the most updated potential collisions computed for object GALEX.

Target Orbit TCA Probability of collision Miss distance Type
CZ-6A DEB LEO 2025-09-16 19:18:42 0.0003174657 536.0 (m) DEBRIS
DELTA 1 DEB SSO 2025-07-02 19:54:50 0.001455773 116.0 (m) DEBRIS
SCOUT B-1 R/B LEO 2025-03-31 07:23:28 0.0003548769 583.0 (m) ROCKET BODY
FENGYUN 1C DEB SSO 2024-09-16 15:39:55 0.0001609611 587.0 (m) DEBRIS

Associated space launch

GALEX was lifted into orbit during the mission ‘Pegasus XL | Galaxy Evolution Explorer (GALEX)’, on board a Pegasus XL space rocket.

The launch took place on April 28, 2003, 11:59 a.m. from Cape Canaveral.

For more information about the launch, click the button.

Launch to space Pegasus XL | Galaxy Evolution Explorer (GALEX)
Pegasus XL | Galaxy Evolution Explorer (GALEX)

Agency: N/A

Status: Launch Successful

Launch date: April 28, 2003, 11:59 a.m. UTC

Rocket: Pegasus XL

Launch pad: Cape Canaveral

Location: Air launch to orbit

...

Latest news about this satellite

There are no fresh news available about this satellite. Check back as we update our databases every day.


Newsletter sign-up

Weekly statistics, charts and insights to help you stay on top of the space industry.